AirNav   Air Wisconsin pilot careers
 
 859 users online  

52K Charles E Grutzmacher Municipal Airport
Onaga, Kansas, USA

GOING TO ONAGA?


FAA INFORMATION EFFECTIVE 08 NOVEMBER 2018

Location

FAA Identifier: 52K
Lat/Long: 39-29-52.6200N / 096-10-30.3000W
39-29.877000N / 096-10.505000W
39.4979500 / -96.1750833
(estimated)
Elevation: 1183 ft. / 361 m (estimated)
Variation: 06E (1985)
Time zone: UTC -6 (UTC -5 during Daylight Saving Time)
Zip code: 66521

Airport Operations

Airport use: Open to the public
Activation date: 01/1965
Control tower: no
ARTCC: KANSAS CITY CENTER
FSS: WICHITA FLIGHT SERVICE STATION
NOTAMs facility: ICT (NOTAM-D service available)
Attendance: UNATNDD
Wind indicator: yes
Segmented circle: no

Airport Communications

CTAF: 122.9

Nearby radio navigation aids

VOR radial/distance  VOR name  Freq  Var
MHKr043/31.2MANHATTAN VOR/DME110.2004E
TOPr302/36.2TOPEKA VORTAC117.8005E

Airport Services

Parking: tiedowns
Airframe service: NONE
Powerplant service: NONE
Bottled oxygen: NONE
Bulk oxygen: NONE

Runway Information

Runway 18/36

Dimensions: 2200 x 61 ft. / 671 x 19 m
WIDTH VARIES FM MIN 61 FT AT AER 36 TO MAX 136 FT AT MIDFLD.
Surface: turf, in good condition
RWY NR MIDFIELD HAS OCNL MINOR DEPRESSIONS.
Runway edge lights: AER 36 MKD WITH 4 WHITE LGTS ON 36 IN. PEDESTALS. FIRST 600 FT RY 36 LGTD. W SIDE ONLY.
Gradient: N
RUNWAY 18  RUNWAY 36
Latitude: 39-30.057500N39-29.696500N
Longitude: 096-10.483833W096-10.526167W
Elevation: 1177.0 ft.1166.0 ft.
Gradient: 0.5% UP
Traffic pattern: leftleft
Obstructions: 44 ft. tree, 645 ft. from runway, 162 ft. left of centerline, 14:1 slope to clear8 ft. road, 30 ft. from runway, 3:1 slope to clear

Airport Ownership and Management from official FAA records

Ownership: Publicly-owned
Owner: CITY OF ONAGA
PO BOX 298 - 319 PROSPECT ST.
ONAGA, KS 66521
Phone 785-889-4456
Manager: AUGUST HARTWICH, MAYOR
PO BOX 298
ONAGA, KS 66521
Phone (785) 889-4456

Airport Operational Statistics

Aircraft based on the field: 1
Single engine airplanes: 1
    
Aircraft operations: avg 25/month *
33% transient general aviation
33% local general aviation
33% military
* for 12-month period ending 31 July 2017

Instrument Procedures

There are no published instrument procedures at 52K.

Some nearby airports with instrument procedures:

KMYZ - Marysville Municipal Airport (30 nm NW)
KMHK - Manhattan Regional Airport (31 nm SW)
KTOP - Philip Billard Municipal Airport (36 nm SE)
KFRI - Marshall Army Airfield (38 nm SW)
KFOE - Topeka Regional Airport (41 nm SE)
 
Loc | Ops | Rwys | IFR | FBO | Links
Com | Nav | Svcs | Stats | Notes

Kansas City Aviation Department
 
Area around 52K (Charles E Grutzmacher Municipal Airport)
 
Road maps at: MapQuest Bing Google
 
Aerial photo
WARNING: Photo may not be current or correct
Aerial photo of 52K (Charles E Grutzmacher Municipal Airport)
Taken in the Fall of 2003

Do you have a better or more recent aerial photo of Charles E Grutzmacher Municipal Airport that you would like to share? If so, please send us your photo.

 
Sectional chart

 
Airport distance calculator
Flying to Charles E Grutzmacher Municipal Airport? Find the distance to fly.

From to 52K

Sunrise and sunset
Times for 17-Nov-2018
 Local
(UTC-6)
 Zulu
(UTC)
Morning civil twilight06:4312:43
Sunrise07:1213:12
Sunset17:0723:07
Evening civil twilight17:3623:36

Current date and time
Zulu (UTC)  17-Nov-2018 22:12:08
Local (UTC-6)  17-Nov-2018 16:12:08
 
METAR
KMYZ 
30nm NW 
172155Z AUTO 36019G25KT 10SM -RA OVC013 M03/M05 A3031 RMK AO2
KMHK 
32nm SW 
172152Z 03018G24KT 10SM OVC018 01/M03 A3027 RMK AO2 PK WND 04030/2136 SLP258 T00061033
KTOP 
36nm SE 
172153Z 36012G20KT 10SM OVC016 02/M02 A3023 RMK AO2 PK WND 36028/2054 SLP244 T00221022
KFRI 
39nm SW 
172156Z AUTO 04017KT 10SM OVC017 00/M04 A3027 RMK AO2 PK WND 04027/11 SLP258 T00021043
KFOE 
42nm SE 
172153Z 02014G23KT 10SM OVC015 03/M02 A3021 RMK AO2 PK WND 02026/2107 SLP238 T00281017
KFNB 
44nm NE 
172153Z AUTO 01015G25KT 10SM OVC012 M02/M05 A3031 RMK AO2 SLP274 T10221050
TAF
KMHK 
32nm SW 
171735Z 1718/1818 03011G22KT P6SM OVC015 FM172200 03013G22KT 6SM BR OVC012 FM180000 01010KT 6SM -FZDZ BR OVC012 FM181000 01008KT P6SM OVC025
KTOP 
36nm SE 
171735Z 1718/1818 02013G21KT P6SM OVC015 FM172000 02015G22KT 6SM BR OVC012 FM180200 02013KT 6SM -FZDZ BR OVC014 FM181000 01010KT P6SM OVC020
KFRI 
39nm SW 
170000Z 1700/1806 18009KT 9999 SKC QNH2992INS BECMG 1703/1704 21009KT 9999 FEW150 QNH2996INS BECMG 1709/1710 34012KT 9999 FEW150 QNH3000INS BECMG 1711/1712 01015G25KT 9999 BKN010 OVC015 QNH3004INS BECMG 1717/1718 02015G25KT 9999 OVC015 QNH3018INS BECMG 1722/1723 02010G15KT 8000 -SHSN OVC015 QNH3024INS TX12/1700Z TN00/1712Z LAST NO AMDS AFT 1700 NEXT 1900
NOTAMs
Click for the latest NOTAMs
NOTAMs are issued by the DoD/FAA and will open in a separate window not controlled by AirNav.

 

 
 

Would you like to see your business listed on this page?

 If your business provides an interesting product or service to pilots, flight crews, aircraft, or users of the Charles E Grutzmacher Municipal Airport, you should consider listing it here.  To start the listing process, click on the button below
 
Add a business
 

Other Pages about Charles E Grutzmacher Municipal Airport

Update a link
 
Copyright © AirNav, LLC. All rights reserved. Privacy Policy  Contact